Location: Corcelles
(46.1547°N, 4.7234°E)
Time: 04:34:00
(UTC+00:00)

ARIANE 5 R/B - Pass Details

Date: 14 July 2020
Orbit: 749 x 794 km, 98.6° (Epoch: 06 August)

Event Time Altitude Azimuth Distance (km) Brightness Sun altitude
Rises 02:50:49 0° 12° (NNE) 3,235 6.9 -10.5°
Reaches altitude 10° 02:53:07 10° 10° (N) 2,311 5.9 -10.2°
Maximum altitude 02:58:12 72° 287° (WNW) 812 2.6 -9.6°
Drops below altitude 10° 03:03:18 10° 204° (SSW) 2,324 4.4 -9.0°
Enters shadow 03:03:30 - 204° (SSW) 2,402 4.5 -9.0°
